Time,TemperatureF,DewpointF,PressureIn,WindDirection,WindDirectionDegrees,WindSpeedMPH,WindSpeedGustMPH,Humidity,HourlyPrecipIn,Conditions,Clouds,dailyrainin,SoftwareType,DateUTC
2013-12-08 00:11:00,-3.7,-9.0,30.61,SW,225,0.0,-999.0,77,-99.99,,,0.00,weatherlink.com 1.10,2013-12-08 06:11:00,
2013-12-08 00:26:00,-3.5,-9.0,30.60,SW,225,0.0,-999.0,78,-99.99,,,0.00,weatherlink.com 1.10,2013-12-08 06:26:00,
2013-12-08 00:41:00,-3.1,-8.0,30.59,SW,225,0.0,-999.0,78,-99.99,,,0.00,weatherlink.com 1.10,2013-12-08 06:41:00,
2013-12-08 00:56:00,-2.6,-8.0,30.58,SW,225,0.0,-999.0,78,-99.99,,,0.00,weatherlink.com 1.10,2013-12-08 06:56:00,
2013-12-08 01:11:00,-2.4,-7.0,30.57,SW,225,0.0,-999.0,79,-99.99,,,0.00,weatherlink.com 1.10,2013-12-08 07:11:00,
2013-12-08 01:26:00,-2.0,-7.0,30.57,SW,225,0.0,-999.0,79,-99.99,,,0.00,weatherlink.com 1.10,2013-12-08 07:26:00,
2013-12-08 01:41:00,-1.8,-7.0,30.56,SW,225,0.0,-999.0,79,-99.99,,,0.00,weatherlink.com 1.10,2013-12-08 07:41:00,
2013-12-08 01:56:00,-1.2,-6.0,30.55,SW,225,0.0,-999.0,79,-99.99,,,0.00,weatherlink.com 1.10,2013-12-08 07:56:00,
2013-12-08 02:12:00,-0.8,-6.0,30.55,SW,225,0.0,-999.0,79,-99.99,,,0.00,weatherlink.com 1.10,2013-12-08 08:12:00,
2013-12-08 02:27:00,-0.4,-5.0,30.55,SW,225,0.0,-999.0,79,-99.99,,,0.00,weatherlink.com 1.10,2013-12-08 08:27:00,
2013-12-08 02:42:00,-0.2,-6.0,30.55,SW,225,0.0,-999.0,78,-99.99,,,0.00,weatherlink.com 1.10,2013-12-08 08:42:00,
2013-12-08 02:57:00,0.0,-5.0,30.54,SW,225,0.0,-999.0,78,-99.99,,,0.00,weatherlink.com 1.10,2013-12-08 08:57:00,
2013-12-08 03:13:00,0.3,-5.0,30.54,SW,225,0.0,-999.0,78,-99.99,,,0.00,weatherlink.com 1.10,2013-12-08 09:13:00,
2013-12-08 03:28:00,0.5,-5.0,30.53,SW,225,0.0,-999.0,77,-99.99,,,0.00,weatherlink.com 1.10,2013-12-08 09:28:00,
2013-12-08 03:43:00,0.7,-5.0,30.52,SW,225,0.0,-999.0,76,-99.99,,,0.00,weatherlink.com 1.10,2013-12-08 09:43:00,
2013-12-08 03:58:00,0.9,-6.0,30.51,SW,225,0.0,-999.0,73,-99.99,,,0.00,weatherlink.com 1.10,2013-12-08 09:58:00,
2013-12-08 04:12:00,1.1,-6.0,30.50,SW,225,0.0,-999.0,73,-99.99,,,0.00,weatherlink.com 1.10,2013-12-08 10:12:00,
2013-12-08 04:27:00,1.5,-5.0,30.49,SW,225,0.0,-999.0,73,-99.99,,,0.00,weatherlink.com 1.10,2013-12-08 10:27:00,
2013-12-08 04:42:00,1.7,-5.0,30.49,SW,224,0.0,-999.0,74,-99.99,,,0.00,weatherlink.com 1.10,2013-12-08 10:42:00,
2013-12-08 04:57:00,2.0,-4.0,30.49,SW,225,0.0,-999.0,75,-99.99,,,0.00,weatherlink.com 1.10,2013-12-08 10:57:00,
2013-12-08 05:13:00,2.2,-4.0,30.48,SW,225,0.0,-999.0,76,-99.99,,,0.00,weatherlink.com 1.10,2013-12-08 11:13:00,
2013-12-08 05:28:00,2.6,-3.0,30.48,SW,225,0.0,-999.0,77,-99.99,,,0.00,weatherlink.com 1.10,2013-12-08 11:28:00,
2013-12-08 05:43:00,2.8,-3.0,30.48,SW,225,0.0,-999.0,77,-99.99,,,0.00,weatherlink.com 1.10,2013-12-08 11:43:00,
2013-12-08 05:58:00,3.0,-2.0,30.47,SW,225,0.0,-999.0,78,-99.99,,,0.00,weatherlink.com 1.10,2013-12-08 11:58:00,
2013-12-08 06:14:00,3.2,-2.0,30.47,SW,225,0.0,-999.0,78,-99.99,,,0.00,weatherlink.com 1.10,2013-12-08 12:14:00,
2013-12-08 06:29:00,3.2,-2.0,30.46,SW,225,0.0,-999.0,78,-99.99,,,0.00,weatherlink.com 1.10,2013-12-08 12:29:00,
2013-12-08 06:44:00,3.2,-2.0,30.46,South,186,1.0,-999.0,78,-99.99,,,0.00,weatherlink.com 1.10,2013-12-08 12:44:00,
2013-12-08 06:59:00,3.2,-2.0,30.46,South,186,0.0,-999.0,78,-99.99,,,0.00,weatherlink.com 1.10,2013-12-08 12:59:00,
2013-12-08 07:14:00,3.4,-2.0,30.45,South,186,0.0,-999.0,78,-99.99,,,0.00,weatherlink.com 1.10,2013-12-08 13:14:00,
2013-12-08 07:29:00,3.4,-2.0,30.45,South,186,0.0,-999.0,78,-99.99,,,0.00,weatherlink.com 1.10,2013-12-08 13:29:00,
2013-12-08 07:44:00,3.5,-2.0,30.43,South,186,0.0,-999.0,79,-99.99,,,0.00,weatherlink.com 1.10,2013-12-08 13:44:00,
2013-12-08 07:59:00,3.5,-2.0,30.43,South,186,0.0,-999.0,79,-99.99,,,0.00,weatherlink.com 1.10,2013-12-08 13:59:00,
2013-12-08 08:14:00,3.7,-1.0,30.41,South,186,0.0,-999.0,79,-99.99,,,0.00,weatherlink.com 1.10,2013-12-08 14:14:00,
2013-12-08 08:29:00,3.9,-1.0,30.41,South,186,0.0,-999.0,79,-99.99,,,0.00,weatherlink.com 1.10,2013-12-08 14:29:00,
2013-12-08 08:44:00,4.1,-1.0,30.41,South,186,0.0,-999.0,79,-99.99,,,0.00,weatherlink.com 1.10,2013-12-08 14:44:00,
2013-12-08 08:59:00,4.5,-1.0,30.41,South,186,1.0,-999.0,79,-99.99,,,0.00,weatherlink.com 1.10,2013-12-08 14:59:00,
2013-12-08 09:14:00,4.8,0.0,30.40,SSE,166,2.0,-999.0,79,-99.99,,,0.00,weatherlink.com 1.10,2013-12-08 15:14:00,
2013-12-08 09:29:00,5.2,0.0,30.40,SE,132,1.0,-999.0,79,-99.99,,,0.00,weatherlink.com 1.10,2013-12-08 15:29:00,
2013-12-08 09:44:00,5.6,0.0,30.40,SE,132,0.0,-999.0,78,-99.99,,,0.00,weatherlink.com 1.10,2013-12-08 15:44:00,
2013-12-08 09:59:00,6.0,1.0,30.39,SE,132,0.0,-999.0,79,-99.99,,,0.00,weatherlink.com 1.10,2013-12-08 15:59:00,
2013-12-08 10:15:00,6.5,1.0,30.39,SE,140,2.0,-999.0,79,-99.99,,,0.00,weatherlink.com 1.10,2013-12-08 16:15:00,
2013-12-08 10:30:00,7.0,2.0,30.38,SE,140,0.0,-999.0,79,-99.99,,,0.00,weatherlink.com 1.10,2013-12-08 16:30:00,
2013-12-08 10:45:00,7.9,3.0,30.38,SE,131,1.0,-999.0,79,-99.99,,,0.00,weatherlink.com 1.10,2013-12-08 16:45:00,
2013-12-08 11:00:00,8.4,3.0,30.36,SE,131,2.0,-999.0,79,-99.99,,,0.00,weatherlink.com 1.10,2013-12-08 17:00:00,
2013-12-08 11:15:00,8.8,3.0,30.34,SE,131,1.0,-999.0,77,-99.99,,,0.00,weatherlink.com 1.10,2013-12-08 17:15:00,
2013-12-08 11:30:00,9.3,4.0,30.33,SE,131,2.0,-999.0,78,-99.99,,,0.00,weatherlink.com 1.10,2013-12-08 17:30:00,
2013-12-08 11:45:00,9.7,4.0,30.32,SE,131,1.0,-999.0,78,-99.99,,,0.00,weatherlink.com 1.10,2013-12-08 17:45:00,
2013-12-08 12:00:00,10.0,4.0,30.31,SE,131,3.0,-999.0,77,-99.99,,,0.00,weatherlink.com 1.10,2013-12-08 18:00:00,
2013-12-08 12:16:00,10.2,4.0,30.29,ESE,121,3.0,-999.0,77,-99.99,,,0.00,weatherlink.com 1.10,2013-12-08 18:16:00,
2013-12-08 12:31:00,10.4,5.0,30.28,ESE,112,2.0,-999.0,77,-99.99,,,0.00,weatherlink.com 1.10,2013-12-08 18:31:00,
2013-12-08 12:46:00,10.7,5.0,30.26,ESE,122,0.0,-999.0,77,-99.99,,,0.00,weatherlink.com 1.10,2013-12-08 18:46:00,
2013-12-08 13:01:00,11.1,5.0,30.24,ESE,122,0.0,-999.0,77,-99.99,,,0.00,weatherlink.com 1.10,2013-12-08 19:01:00,
2013-12-08 13:16:00,11.4,6.0,30.23,ESE,122,3.0,-999.0,77,-99.99,,,0.00,weatherlink.com 1.10,2013-12-08 19:16:00,
2013-12-08 13:31:00,11.7,6.0,30.22,ESE,122,0.0,-999.0,77,-99.99,,,0.00,weatherlink.com 1.10,2013-12-08 19:31:00,
2013-12-08 13:46:00,11.7,6.0,30.21,ESE,122,2.0,-999.0,76,-99.99,,,0.00,weatherlink.com 1.10,2013-12-08 19:46:00,
2013-12-08 14:01:00,11.9,6.0,30.20,ESE,122,0.0,-999.0,77,-99.99,,,0.00,weatherlink.com 1.10,2013-12-08 20:01:00,
2013-12-08 14:16:00,12.1,6.0,30.19,SSE,168,0.0,-999.0,77,-99.99,,,0.00,weatherlink.com 1.10,2013-12-08 20:16:00,
2013-12-08 14:31:00,12.3,6.0,30.19,SSE,168,0.0,-999.0,77,-99.99,,,0.00,weatherlink.com 1.10,2013-12-08 20:31:00,
2013-12-08 14:46:00,12.4,7.0,30.18,SSE,168,2.0,-999.0,77,-99.99,,,0.00,weatherlink.com 1.10,2013-12-08 20:46:00,
2013-12-08 15:01:00,12.4,7.0,30.17,SSE,168,0.0,-999.0,77,-99.99,,,0.00,weatherlink.com 1.10,2013-12-08 21:01:00,
2013-12-08 15:17:00,12.3,6.0,30.16,SSE,168,0.0,-999.0,77,-99.99,,,0.00,weatherlink.com 1.10,2013-12-08 21:17:00,
2013-12-08 15:32:00,12.1,6.0,30.16,SSE,168,0.0,-999.0,77,-99.99,,,0.00,weatherlink.com 1.10,2013-12-08 21:32:00,
2013-12-08 15:47:00,11.9,6.0,30.17,SSE,168,0.0,-999.0,78,-99.99,,,0.00,weatherlink.com 1.10,2013-12-08 21:47:00,
2013-12-08 16:02:00,11.9,7.0,30.16,SSE,168,0.0,-999.0,79,-99.99,,,0.00,weatherlink.com 1.10,2013-12-08 22:02:00,
2013-12-08 16:17:00,11.6,6.0,30.16,SSE,168,0.0,-999.0,79,-99.99,,,0.00,weatherlink.com 1.10,2013-12-08 22:17:00,
2013-12-08 16:32:00,11.4,6.0,30.15,SSE,168,0.0,-999.0,79,-99.99,,,0.00,weatherlink.com 1.10,2013-12-08 22:32:00,
2013-12-08 16:47:00,11.2,6.0,30.14,SSE,168,0.0,-999.0,80,-99.99,,,0.00,weatherlink.com 1.10,2013-12-08 22:47:00,
2013-12-08 17:02:00,10.9,6.0,30.14,SSE,168,0.0,-999.0,80,-99.99,,,0.00,weatherlink.com 1.10,2013-12-08 23:02:00,
2013-12-08 17:18:00,10.7,6.0,30.13,SSE,168,1.0,-999.0,81,-99.99,,,0.00,weatherlink.com 1.10,2013-12-08 23:18:00,
2013-12-08 17:33:00,10.7,6.0,30.13,SSE,168,0.0,-999.0,81,-99.99,,,0.00,weatherlink.com 1.10,2013-12-08 23:33:00,
2013-12-08 17:48:00,10.7,6.0,30.13,SSE,168,0.0,-999.0,81,-99.99,,,0.00,weatherlink.com 1.10,2013-12-08 23:48:00,
2013-12-08 18:03:00,10.7,6.0,30.13,SSE,168,0.0,-999.0,81,-99.99,,,0.00,weatherlink.com 1.10,2013-12-09 00:03:00,
2013-12-08 18:18:00,10.7,6.0,30.12,SSE,168,0.0,-999.0,81,-99.99,,,0.00,weatherlink.com 1.10,2013-12-09 00:18:00,
2013-12-08 18:33:00,10.7,6.0,30.12,SSE,168,0.0,-999.0,81,-99.99,,,0.00,weatherlink.com 1.10,2013-12-09 00:33:00,
2013-12-08 18:48:00,10.7,6.0,30.11,SSE,168,0.0,-999.0,82,-99.99,,,0.00,weatherlink.com 1.10,2013-12-09 00:48:00,
2013-12-08 19:03:00,10.7,6.0,30.11,SSE,168,0.0,-999.0,82,-99.99,,,0.00,weatherlink.com 1.10,2013-12-09 01:03:00,
2013-12-08 19:18:00,10.7,6.0,30.11,SSE,168,0.0,-999.0,82,-99.99,,,0.00,weatherlink.com 1.10,2013-12-09 01:18:00,
2013-12-08 19:33:00,10.5,6.0,30.10,SSE,168,0.0,-999.0,82,-99.99,,,0.00,weatherlink.com 1.10,2013-12-09 01:33:00,
2013-12-08 19:48:00,10.5,6.0,30.09,SSE,168,0.0,-999.0,82,-99.99,,,0.00,weatherlink.com 1.10,2013-12-09 01:48:00,
2013-12-08 20:03:00,10.5,6.0,30.09,SSE,168,0.0,-999.0,82,-99.99,,,0.00,weatherlink.com 1.10,2013-12-09 02:03:00,
2013-12-08 20:19:00,10.5,6.0,30.08,SSE,168,0.0,-999.0,82,-99.99,,,0.00,weatherlink.com 1.10,2013-12-09 02:19:00,
2013-12-08 20:34:00,10.5,6.0,30.07,SSE,168,0.0,-999.0,82,-99.99,,,0.00,weatherlink.com 1.10,2013-12-09 02:34:00,
2013-12-08 20:49:00,10.5,6.0,30.07,SSE,168,0.0,-999.0,82,-99.99,,,0.00,weatherlink.com 1.10,2013-12-09 02:49:00,
2013-12-08 21:04:00,10.5,6.0,30.06,SSE,168,0.0,-999.0,82,-99.99,,,0.00,weatherlink.com 1.10,2013-12-09 03:04:00,
2013-12-08 21:19:00,10.5,6.0,30.06,SSE,168,0.0,-999.0,82,-99.99,,,0.00,weatherlink.com 1.10,2013-12-09 03:19:00,
2013-12-08 21:34:00,10.5,6.0,30.05,SSE,168,0.0,-999.0,82,-99.99,,,0.00,weatherlink.com 1.10,2013-12-09 03:34:00,
2013-12-08 21:49:00,10.4,6.0,30.06,SSE,168,0.0,-999.0,82,-99.99,,,0.00,weatherlink.com 1.10,2013-12-09 03:49:00,
2013-12-08 22:04:00,10.4,6.0,30.05,SSE,168,0.0,-999.0,82,-99.99,,,0.00,weatherlink.com 1.10,2013-12-09 04:04:00,
2013-12-08 22:20:00,10.4,6.0,30.04,SSE,168,0.0,-999.0,82,-99.99,,,0.00,weatherlink.com 1.10,2013-12-09 04:20:00,
2013-12-08 22:35:00,10.2,6.0,30.03,SSE,168,0.0,-999.0,82,-99.99,,,0.00,weatherlink.com 1.10,2013-12-09 04:35:00,
2013-12-08 22:50:00,10.2,6.0,30.04,SSE,168,0.0,-999.0,82,-99.99,,,0.00,weatherlink.com 1.10,2013-12-09 04:50:00,
2013-12-08 23:05:00,10.2,6.0,30.03,SSE,168,0.0,-999.0,82,-99.99,,,0.00,weatherlink.com 1.10,2013-12-09 05:05:00,
2013-12-08 23:20:00,10.0,6.0,30.02,SSE,168,0.0,-999.0,82,-99.99,,,0.00,weatherlink.com 1.10,2013-12-09 05:20:00,
2013-12-08 23:35:00,10.0,6.0,30.02,SSE,168,0.0,-999.0,82,-99.99,,,0.00,weatherlink.com 1.10,2013-12-09 05:35:00,
2013-12-08 23:50:00,9.9,6.0,30.01,SSE,168,0.0,-999.0,82,-99.99,,,0.00,weatherlink.com 1.10,2013-12-09 05:50:00,